SCP
0 0 0 0 0 0 0 0 0 0 0 0 0 0 0 0 -0 -0 0 0 0 0 0 0 -0 0 0 0 0 0 0 0 0 0 0 0 0 0 0 0 0 0 0 0
0 0 0 0 0 0 0 0 0 0 0 0 0 0 0 0 -0 -0 0 0 0 0 -0 -0 -0 0 0 0 0 0 0 0 0 0 0 0 0 0 0 0 0 0 0 0
0 0 0 0 0 0 0 0 0 0 0 0 0 0 0 0 -0 0 0 0 0 -0 -0 -0 -0 0 0 0 0 0 0 0 0 0 0 0 0 0 0 0 0 0 0 0
0 0 0 0 0 0 0 0 0 0 0 0 0 0 0 0 0 0 0 0 0 -0 -0 -0 -0 0 0 0 0 0 0 0 0 0 0 0 0 0 0 0 0 0 0 0
0 0 0 0 0 0 0 0 0 0 0 0 0 0 0 0 0 0 0 0 0 0 0 0 0 0 0 0 0 0 0 0 0 0 0 0 0 0 0 0 0 0 0 0
0 0 0 0 0 0 0 0 0 0 0 0 0 0 0 0 0 0 0 0 0 0 0 0 0 0 0 0 0 0 0 0 0 0 0 0 0 0 0 0 0 0 0 0
0 0 0 0 0 -0 -0 0 0 0 0 0 0 0 0 0 0 0 0 0 0 0 0 0 0 0 0 0 0 0 0 0 0 0 0 0 0 0 0 0 0 0 0 0
0 0 0 0 -0 -0 -0 0 0 0 0 0 0 0 0 0 0 0 0 0 0 -0 -0 0 0 0 0 0 0 0 0 0 0 0 0 0 0 0 0 0 0 0 0 0
0 0 0 0 0 -0 -0 0 0 0 0 0 0 0 0 0 0 0 0 0 0 0 0 -0 0 0 0 0 0 0 0 0 0 -0 0 0 0 0 0 0 0 0 0 0
0 0 0 0 0 0 0 -0 -0 -0 0 0 0 0 0 0 0 0 0 0 0 0 0 0 0 0 0 0 0 0 0 -0 -0 -0 -0 -0 0 0 0 0 0 0 0 0
0 0 0 0 0 0 0 -0 -0 -0 -0 -0 -0 -0 0 0 0 0 0 0 0 0 0 0 0 0 0 0 0 0 0 0 -0 -0 -0 -0 0 0 0 0 0 0 0 0
0 0 0 0 0 0 0 0 0 0 0 -0 -0 -0 -0 0 0 0 0 0 0 0 0 0 0 0 0 0 0 0 0 0 0 0 0 0 0 0 0 0 0 0 0 0
0 0 0 0 0 0 0 0 0 0 0 0 0 0 0 0 0 0 0 0 0 0 0 0 0 0 0 0 0 0 0 0 0 0 0 0 0 0 0 0 0 0 0 0
0 0 0 0 0 0 0 0 0 0 0 0 0 0 0 0 0 0 0 0 0 0 0 0 0 0 0 0 0 0 0 0 0 0 0 0 0 0 0 0 0 0 0 0
0 0 0 0 0 0 0 0 0 0 0 0 0 0 0 0 0 0 0 0 0 0 0 0 0 0 0 0 0 0 0 0 0 0 0 0 0 0 0 0 0 0 0 0
0 0 0 0 0 0 0 0 0 0 0 0 0 0 0 0 0 0 0 0 0 0 0 0 0 0 0 0 0 0 0 0 0 0 0 0 0 0 0 0 0 0 0 0
0 0 0 0 0 0 0 0 0 0 0 0 0 0 0 0 0 0 0 0 0 0 0 0 0 0 0 0 0 0 0 0 0 0 0 0 0 0 0 0 0 0 0 0
0 0 0 -0 0 0 0 0 0 0 0 0 0 0 0 0 0 0 0 0 0 0 0 0 0 0 0 0 0 0 0 0 0 0 0 0 0 0 0 0 0 0 0 0
0 0 -0 -0 0 0 0 0 0 0 0 0 0 0 0 0 0 0 0 0 0 0 0 0 0 0 0 0 0 0 0 0 0 0 0 0 0 0 0 0 0 0 0 0
0 0 -0 -0 0 0 0 0 0 0 0 0 0 0 0 0 0 -0 -0 -0 0 0 0 0 0 0 0 0 0 0 0 0 0 0 0 0 0 0 0 0 0 0 0 0
0 0 0 0 0 0 0 0 0 0 0 0 0 0 0 0 0 -0 -0 0 0 0 0 0 0 0 0 0 0 0 0 0 0 0 0 0 0 0 0 0 0 0 0 0
0 0 0 0 0 0 0 0 0 0 0 0 0 0 0 0 -0 -0 -0 0 0 0 0 0 0 0 0 0 0 0 0 0 0 0 0 0 0 0 0 0 0 0 0 0
0 0 0 0 0 0 0 0 0 0 0 0 0 0 0 0 -0 -0 -0 0 0 0 0 0 0 0 0 0 0 0 0 0 0 0 0 0 0 0 0 0 0 0 0 0
0 0 0 0 0 0 0 0 0 0 0 0 0 0 0 0 0 0 0 0 0 0 0 0 0 0 0 0 0 0 0 0 0 0 0 0 0 0 0 0 0 0 0 0
0 0 0 0 0 0 0 0 0 0 0 0 0 0 0 0 0 0 0 0 0 0 0 0 0 0 0 0 -0 -0 -0 -0 0 0 0 0 0 0 0 0 0 0 0 0
0 0 0 0 0 0 0 0 0 0 0 0 0 0 0 0 0 0 0 0 0 0 0 0 0 0 0 0 -0 -0 -0 -0 -0 0 0 0 0 0 0 0 0 0 0 0
0 0 0 0 0 0 0 0 0 0 0 0 0 0 0 0 0 0 0 0 0 0 0 0 0 0 0 0 -0 -0 -0 -0 -0 -0 -0 0 0 0 0 0 0 0 0 0
Wind_Speed
6 5 4 5 5 7 8 8 7 7 7 7 3 2 3 2 3 3 4 4 4 5 4 4 4 4 4 4 4 4 5 5 5 4 3 4 4 4 4 5 5 5 5 5
5 5 4 6 7 8 8 8 9 8 9 4 3 2 2 3 3 4 5 5 6 6 5 5 5 5 5 5 5 5 5 5 4 3 3 4 4 4 5 5 5 5 5 5
4 1 3 7 8 8 6 6 6 8 6 2 3 3 4 4 4 4 5 5 6 6 6 6 5 5 5 5 5 5 5 5 4 3 3 4 4 4 5 5 5 5 5 6
2 1 6 5 0 3 4 4 4 4 3 2 3 4 4 3 3 4 5 6 6 6 6 6 5 5 5 5 5 5 5 4 4 4 4 4 4 5 5 4 5 5 6 6
2 4 6 2 0 1 3 5 3 4 3 4 4 4 3 1 2 4 5 5 5 5 6 6 6 6 5 5 4 4 5 4 4 4 4 4 5 5 4 4 5 5 6 6
3 4 5 2 1 1 2 4 2 1 2 2 3 3 4 4 5 5 5 5 5 5 5 6 6 6 5 5 4 4 4 5 4 4 4 5 5 5 4 5 5 6 6 6
5 5 5 1 1 1 1 4 2 0 1 1 2 4 4 5 5 5 5 6 6 5 5 6 6 6 6 6 5 5 5 5 5 4 4 5 5 5 4 5 5 5 6 6
3 4 6 1 2 2 3 2 2 1 1 2 4 4 5 5 6 6 6 6 6 6 6 6 6 5 6 7 6 5 5 5 5 4 4 4 4 4 4 5 5 5 5 5
5 5 1 1 2 2 1 1 2 2 2 2 4 5 5 5 5 5 5 6 6 6 7 6 6 5 6 7 7 6 5 5 5 5 4 4 3 4 4 4 3 4 4 5
3 4 2 2 1 2 1 1 2 2 2 2 4 5 5 5 5 5 5 5 5 6 7 7 7 7 6 7 7 6 6 5 5 4 4 4 3 3 3 3 3 4 4 5
4 3 3 2 2 3 2 2 3 3 2 2 3 5 4 5 5 5 5 5 5 5 6 7 7 7 8 7 6 6 6 5 5 4 4 3 3 3 4 4 4 5 4 5
4 2 2 3 3 2 2 3 3 3 4 3 3 4 5 5 4 4 5 5 5 5 6 7 7 7 7 7 7 6 6 5 4 4 4 3 3 4 6 6 9 10 9 8
3 3 3 3 3 2 2 3 3 3 3 4 3 3 4 4 4 4 5 5 5 6 6 6 7 7 7 7 7 6 6 6 5 4 4 4 4 4 5 6 7 8 9 10
2 2 3 2 2 3 2 3 3 3 3 3 3 3 3 4 4 5 5 5 5 5 6 6 6 7 7 7 7 7 6 6 6 4 4 4 4 4 4 4 5 5 6 8
3 2 2 2 2 2 2 3 3 4 4 4 3 3 4 4 5 6 6 6 6 6 6 6 6 7 7 7 7 6 6 5 4 4 4 4 4 4 4 4 4 4 4 5
3 3 2 2 2 3 3 3 3 4 4 4 4 4 4 4 5 6 5 5 5 6 7 6 7 7 7 6 7 5 5 8 8 5 4 4 4 4 4 4 4 4 4 4
2 3 3 4 3 3 3 3 3 4 4 5 5 5 5 5 5 6 6 5 5 5 6 6 7 8 6 6 6 5 5 6 9 6 4 4 4 4 4 4 4 4 4 5
2 2 2 3 3 3 4 4 3 4 4 5 5 4 4 5 5 6 6 6 6 6 5 5 7 7 6 6 5 4 4 4 4 4 4 4 4 4 4 4 5 5 4 5
2 2 3 3 3 3 3 3 3 4 4 4 4 4 4 4 4 5 5 6 6 6 6 6 10 7 6 7 7 4 4 5 4 4 4 6 5 4 4 4 4 4 4 4
2 3 3 3 3 3 3 3 3 3 3 3 4 4 5 5 4 5 5 4 4 4 6 7 7 6 6 7 8 4 4 4 4 4 4 4 4 4 4 4 4 4 4 4
3 3 3 3 3 3 2 3 3 3 3 3 3 4 5 5 4 4 4 5 5 5 6 9 6 5 5 6 7 4 4 4 4 4 4 4 4 4 4 4 4 5 4 4
3 3 3 3 3 3 3 2 2 3 3 3 3 4 4 5 5 4 3 3 5 9 7 5 5 7 9 8 4 4 4 4 3 3 3 3 4 4 4 4 4 5 4 4
2 2 2 2 3 3 3 3 3 3 3 3 4 4 4 4 4 4 5 4 4 9 7 5 8 11 12 6 4 4 4 4 4 3 3 3 3 3 4 4 4 4 4 4
2 2 2 2 2 2 3 3 3 3 3 3 3 3 3 4 4 3 3 8 10 10 5 8 12 12 10 4 4 4 4 4 4 3 3 3 3 3 3 4 4 4 4 5
2 2 2 2 2 2 2 3 3 3 3 3 3 4 3 2 3 4 4 5 9 9 5 8 12 12 6 4 4 4 4 4 4 4 3 3 4 4 4 4 4 4 4 4
1 1 1 2 1 2 2 2 2 3 3 3 4 3 3 3 3 4 4 5 6 9 6 5 6 7 4 4 4 4 4 5 5 4 4 4 4 4 4 4 5 4 4 4
1 1 1 2 2 2 2 2 2 3 3 4 4 4 4 4 4 4 5 5 5 5 5 4 4 4 4 4 4 4 4 3 4 4 4 4 4 4 4 5 4 4 4 4
Wind_Direction
269 285 269 247 231 208 214 225 233 254 261 271 282 302 306 312 314 309 310 314 315 311 309 311 311 307 304 298 290 284 275 266 259 253 249 255 257 252 253 253 254 251 250 249
274 265 263 269 252 229 230 239 250 270 277 279 308 327 320 313 306 303 307 310 313 312 309 308 304 301 299 295 293 287 275 269 265 252 248 251 257 256 252 254 255 257 256 252
264 293 304 260 232 211 217 223 215 239 256 338 330 309 296 293 294 300 305 308 307 305 304 305 303 299 292 288 286 283 280 278 270 257 254 258 263 265 260 257 255 257 258 253
260 297 242 241 67 174 206 247 232 246 278 312 303 298 289 283 295 305 308 307 305 304 305 306 303 302 296 290 283 281 281 276 280 274 264 265 264 262 261 263 259 258 258 252
228 247 264 261 244 153 201 272 241 234 277 313 337 329 298 321 335 306 302 299 299 303 307 310 309 307 303 295 286 282 279 277 275 275 272 268 266 264 263 266 267 262 260 255
231 248 249 266 352 1 93 279 290 197 260 310 360 320 297 345 339 326 320 319 317 315 314 313 313 313 305 299 290 286 284 282 279 272 270 265 262 263 263 263 266 269 270 261
235 247 263 304 321 69 173 264 324 273 249 278 269 258 291 320 325 325 326 327 326 319 314 313 316 318 312 313 302 296 296 291 283 275 268 266 264 264 264 264 261 261 267 267
211 226 253 42 82 177 239 314 348 348 322 304 295 300 308 315 321 327 329 329 329 325 319 319 321 319 316 313 311 310 304 299 292 286 280 276 268 268 264 257 256 259 265 269
205 219 250 170 212 253 348 326 322 321 313 305 301 302 310 315 317 319 322 323 326 322 319 323 326 324 315 314 317 317 312 306 302 298 292 288 277 272 270 262 258 265 264 269
261 266 268 250 299 341 349 299 309 310 305 302 294 301 307 311 314 317 318 319 323 323 322 323 327 328 323 320 323 322 318 313 305 303 301 295 283 272 267 267 266 265 266 269
255 286 316 296 298 308 316 323 321 323 316 302 300 299 299 303 307 311 315 319 320 319 318 320 326 328 328 329 330 325 321 318 318 312 306 303 301 294 288 275 270 272 266 264
245 264 251 280 305 319 314 313 314 320 321 316 295 293 303 302 304 308 312 316 319 319 318 319 323 325 328 332 334 329 324 325 325 322 317 312 307 308 303 293 298 292 285 282
260 298 279 283 314 332 317 314 317 310 302 309 309 297 301 302 308 312 315 318 317 315 315 317 322 324 328 332 333 330 325 323 319 319 319 317 315 310 312 318 311 306 304 300
293 322 305 315 323 336 337 331 332 327 319 314 313 314 310 309 315 318 315 313 314 316 317 320 322 321 324 327 327 325 321 316 316 315 316 316 313 309 307 310 315 316 316 311
318 320 291 317 338 344 345 345 340 330 331 334 333 325 320 316 314 313 313 318 321 320 320 323 321 319 325 325 323 321 319 317 315 315 317 317 315 314 313 312 311 313 318 319
316 321 325 330 327 332 339 336 323 317 324 323 324 322 317 311 310 311 316 322 322 319 319 322 320 320 323 323 322 320 318 320 324 325 326 324 324 324 323 320 319 317 319 320
321 312 315 314 314 316 311 306 303 307 313 314 314 315 316 317 318 319 321 323 315 310 313 318 317 319 322 323 321 318 320 321 326 330 328 326 326 325 325 323 318 317 317 320
285 287 283 284 293 304 311 317 318 316 311 309 313 315 316 316 315 316 320 323 321 318 318 318 317 324 325 323 320 317 318 319 325 327 327 326 329 330 328 325 324 323 326 330
333 328 329 326 314 304 307 312 313 311 311 313 315 314 311 311 312 314 319 323 322 322 324 327 330 334 325 322 324 317 320 323 327 327 327 326 332 333 331 329 328 331 335 336
346 342 338 331 327 321 318 317 316 314 315 319 322 321 322 321 320 318 318 313 309 305 316 326 330 323 321 321 331 329 326 326 329 331 331 331 330 331 333 334 336 337 339 341
335 334 335 329 321 321 315 314 316 313 319 325 321 316 315 318 320 320 321 319 320 324 329 330 330 323 324 331 334 329 326 326 329 330 330 329 328 331 336 340 341 339 339 341
324 325 324 324 328 328 327 327 322 319 324 325 324 321 321 322 323 319 306 297 315 331 337 326 323 328 334 337 332 326 323 324 325 325 325 327 331 333 334 337 336 335 337 341
317 319 324 329 324 319 328 333 327 325 321 319 320 319 316 314 317 319 319 322 324 331 335 323 328 333 338 345 337 334 333 333 332 331 329 329 329 327 326 329 330 332 335 337
319 327 322 320 324 334 338 335 334 327 315 310 310 311 312 316 316 311 303 321 330 332 332 327 335 337 341 346 339 337 335 333 332 330 328 329 328 327 326 327 326 328 331 332
317 316 324 335 338 332 327 330 332 329 328 325 322 323 319 309 306 315 319 320 326 332 330 331 335 338 343 336 336 334 332 329 327 329 331 332 330 327 324 324 324 325 327 328
321 316 313 309 309 318 328 332 330 327 331 330 329 327 325 321 313 312 317 320 321 328 330 324 326 331 333 331 329 328 327 328 331 333 330 327 327 327 325 325 325 324 324 323
336 336 337 339 342 342 334 328 324 323 326 322 318 321 324 324 323 322 321 322 323 323 321 321 322 322 324 325 324 323 322 322 321 321 322 321 320 320 321 321 317 315 317 317